Find Starlink 35447

NORAD ID: 66589 Int'l Des: 2025-270 Owner: SPXS Country: US Constellation: starlink operational
LEOCIRCULAR

当前视图

正在加载3D地球...

关于 Starlink 35447

正在加载描述...

即将过境

Passes for default location (London). Set your location on the main map for personalized predictions.

高度历史

Loading altitude history...

两行轨道根数

1 66589U 25270B 26159.56154477 .00023043 00000-0 84390-3 0 9991
2 66589 42.9996 262.9858 0003626 275.5119 84.5319 15.27590654 31718
Epoch: Jun 8, 2026 • Age: 11 hours

当前状态

高度 487.8 km
速度 7.63 km/s
星下点 39.69°N, 106.41°E
发射日期 Nov 22, 2025
运行时间 0.5 years
类型 internet

技术详情

分类 Payload
质量 575.00 kg
干质量 530.00 kg
总质量 575.00 kg
长度 0.30 m
直径 4.10 m
跨度 29.00 m
形状 Box + pan
制造商 SPXS
平台类型 Starlink V2MO
阶段状态 In Orbit
所有者/国家 SPXS/US

Most Searched